Weather History for Mitchell, SD

Change the Weather History Date:

Monday, July 7, 2014

  Actual Average Record
Temperature  
Mean Temperature 74 °F 75 °F  
Max Temperature 87 °F 87 °F 103 °F (1930)
Min Temperature 61 °F 63 °F 45 °F (1922)
Degree Days  
Heating Degree Days 0 0  
Month to date heating degree days 3 0  
Since 1 June heating degree days 29 35  
Since 1 July heating degree days 3 0  
Cooling Degree Days 9 10  
Month to date cooling degree days 52 68  
Year to date cooling degree days 288 278  
Since 1 June cooling degree days 210 238  
Growing Degree Days 22 (Base 50)    
Moisture  
Dew Point 61 °F    
Average Humidity 69    
Maximum Humidity 93    
Minimum Humidity 44    
Precipitation  
Precipitation 0.05 in 0.12 in 2.50 in (1918)
Month to date precipitation 0.06 0.86  
Year to date precipitation 8.98 11.72  
Snow  
Snow 0.00 in - 0.00 in ()
Month to date snowfall 0.0  
Since 1 June snowfall 0.0  
Since 1 July snowfall 0.0  
Snow Depth 0.00 in    
Sea Level Pressure  
Sea Level Pressure 29.82 in    
Wind  
Wind Speed 10 mph (West)    
Max Wind Speed 24 mph    
Max Gust Speed 32 mph    
Visibility 10 miles    
Events Rain , Thunderstorm    
T = Trace of Precipitation, MM = Missing Value Source: NWS Daily Summary

Daily Weather History Graph

Daily Weather History Graph

Search for Another Location

Airport:

Trip Planner

Search our weather history database for the weather conditions in past years. The results will help you decide how hot, cold, wet, or windy it might be!

Date:

Astronomy

Jul. 07, 2014 Rise Set
Actual Time 5:57 AM CDT 9:16 PM CDT
Civil Twilight 5:22 AM CDT 9:51 PM CDT
Nautical Twilight 4:36 AM CDT 10:37 PM CDT
Astronomical Twilight 3:39 AM CDT 11:34 PM CDT
Moon 4:15 PM CDT (7/7) 1:58 AM CDT (7/7)
Length of Visible Light 16h 29m
Length of Day
15h 18m
Waxing Gibbous, 72% of the Moon is Illuminated
Jul 7
Waxing Gibbous
Jul 12
Full
Jul 18
Last Quarter
Jul 26
New
Aug 3
First Quarter

Hourly Weather History & Observations

Time (CDT) Temp. Heat Index Dew Point Humidity Pressure Visibility Wind Dir Wind Speed Gust Speed Precip Events Conditions
12:53 AM 70.0 °F - 61.0 °F 73% 29.85 in 10.0 mi Calm Calm - N/A   Clear
1:53 AM 66.0 °F - 60.1 °F 81% 29.85 in 10.0 mi WSW 4.6 mph - N/A   Clear
2:53 AM 66.0 °F - 60.1 °F 81% 29.83 in 10.0 mi SSW 3.5 mph - N/A   Clear
3:53 AM 64.0 °F - 59.0 °F 84% 29.82 in 10.0 mi SSW 3.5 mph - N/A   Clear
4:53 AM 64.0 °F - 59.0 °F 84% 29.81 in 10.0 mi WSW 3.5 mph - N/A   Clear
5:53 AM 61.0 °F - 57.9 °F 90% 29.81 in 10.0 mi SW 4.6 mph - N/A   Clear
6:53 AM 63.0 °F - 60.1 °F 90% 29.81 in 10.0 mi Calm Calm - N/A   Clear
7:53 AM 66.0 °F - 61.0 °F 84% 29.81 in 10.0 mi Calm Calm - N/A   Clear
8:21 AM 66.0 °F - 62.1 °F 87% 29.84 in 10.0 mi NNE 4.6 mph - 0.00 in Rain , Thunderstorm Light Thunderstorms and Rain
8:53 AM 66.0 °F - 64.0 °F 93% 29.81 in 10.0 mi South 8.1 mph - 0.04 in Thunderstorm Mostly Cloudy
9:43 AM 66.9 °F - 64.0 °F 90% 29.87 in 10.0 mi SSE 3.5 mph - 0.01 in   Scattered Clouds
9:53 AM 66.9 °F - 64.9 °F 93% 29.83 in 10.0 mi SSE 6.9 mph - 0.01 in   Partly Cloudy
10:53 AM 72.0 °F - 64.0 °F 76% 29.80 in 10.0 mi SSW 8.1 mph - N/A   Clear
11:53 AM 75.9 °F - 62.1 °F 62% 29.79 in 10.0 mi SW 11.5 mph - N/A   Mostly Cloudy
12:53 PM 80.1 °F 81.5 °F 63.0 °F 56% 29.77 in 10.0 mi SW 9.2 mph - N/A   Clear
1:53 PM 81.0 °F 81.6 °F 60.1 °F 49% 29.77 in 10.0 mi West 12.7 mph 21.9 mph N/A   Mostly Cloudy
2:53 PM 84.0 °F 84.4 °F 61.0 °F 46% 29.76 in 10.0 mi WNW 16.1 mph 24.2 mph N/A   Clear
3:53 PM 82.9 °F 84.6 °F 64.9 °F 54% 29.75 in 10.0 mi NNW 21.9 mph 27.6 mph N/A   Mostly Cloudy
4:53 PM 80.1 °F 81.7 °F 64.0 °F 58% 29.79 in 10.0 mi North 12.7 mph 32.2 mph N/A   Clear
5:53 PM 82.0 °F 82.7 °F 61.0 °F 49% 29.80 in 10.0 mi North 17.3 mph 25.3 mph N/A   Clear
6:53 PM 78.1 °F - 63.0 °F 60% 29.83 in 10.0 mi NNW 17.3 mph 24.2 mph N/A   Scattered Clouds
7:53 PM 77.0 °F - 57.9 °F 52% 29.83 in 10.0 mi NW 17.3 mph - N/A   Clear
8:53 PM 73.9 °F - 59.0 °F 59% 29.84 in 10.0 mi NW 12.7 mph - N/A   Clear
9:53 PM 71.1 °F - 55.9 °F 59% 29.86 in 10.0 mi NNW 12.7 mph - N/A   Clear
10:53 PM 68.0 °F - 57.0 °F 68% 29.86 in 10.0 mi NW 11.5 mph - N/A   Clear
11:53 PM 64.9 °F - 57.0 °F 75% 29.86 in 10.0 mi NW 10.4 mph - N/A   Clear